Home > Weather > East London > Past weeks

Flag for South Africa Past Weather in East London, South Africa — Yesterday and Last 2 Weeks

Now
61 °F

Sunny.


Feels Like: 61 °F
Forecast: 48 / 80 °F
Wind: 2 mph from North

Location: East London

Current Time: Aug 24, 2016 at 8:29:42 AM

Latest Report: Aug 24, 2016 at 8:01 AM


Visibility: 10 mi

Pressure: 30.24 "Hg

Humidity: 45%

Dew Point: 39 °F

Location of East LondonLocation

Past Weather in East London — Graph

°F

East London Temperature Yesterday

Maximum temperature yesterday: 68 °F (at 11:51 AM)
Minimum temperature yesterday: 46 °F (at 7:00 AM)
Average temperature yesterday: 59 °F

High & Low Weather Summary for the Past Weeks

 TemperatureHumidityPressure
High91 °F (Aug 12, 1:00 PM)100% (Aug 13, 5:00 AM)30.48 "Hg (Aug 13, 5:00 AM)
Low43 °F (Aug 9, 7:00 AM)10% (Aug 12, 12:00 PM)29.80 "Hg (Aug 21, 6:00 PM)
Average64 °F64%30.15 "Hg
* Reported Aug 9 7:00 AM — Aug 24 7:00 AM, East London, Weather by CustomWeather, © 2016

Note: Actual official high and low records may vary slightly from our data, if they occured in-between our weather recording intervals... More about our weather records

Advertising

East London Weather History for the Previous 24 Hours

Scroll right to see more
 ConditionsComfort  
Time TempWeatherWind HumidityBarometerVisibility
7:00 AM
Wed, Aug 24
50 °FSunny.2 mph62%30.21 "Hg10 mi
6:00 AM59 °FSunny.6 mph39%30.21 "Hg10 mi
5:00 AM61 °FClear.9 mph36%30.18 "Hg10 mi
4:00 AM59 °FClear.8 mph42%30.18 "Hg10 mi
9:00 PM
Tue, Aug 23
52 °FClear.7 mph82%30.27 "Hg10 mi
8:00 PM55 °FPassing clouds.5 mph82%30.27 "HgN/A
7:00 PM55 °FClear.3 mph77%30.27 "Hg10 mi
6:00 PM59 °FClear.7 mph68%30.27 "Hg10 mi
5:00 PM63 °FPassing clouds.10 mph56%30.27 "HgN/A
4:00 PM64 °FSunny.15 mph49%30.27 "Hg10 mi
3:00 PM64 °FSunny.14 mph43%30.30 "Hg10 mi
2:00 PM66 °FPassing clouds.9 mph40%30.30 "HgN/A
1:00 PM64 °FSunny.12 mph40%30.33 "Hg10 mi
12:00 PM68 °FPassing clouds.5 mph28%30.39 "HgN/A
11:51 AM68 °FPassing clouds.5 mph28%30.39 "HgN/A
11:00 AM64 °FPassing clouds.8 mph34%30.42 "HgN/A
10:00 AM63 °FPassing clouds.7 mph39%30.45 "HgN/A
9:57 AM63 °FPassing clouds.7 mph42%30.45 "HgN/A
9:00 AM55 °FSunny.8 mph55%30.48 "Hg10 mi
8:00 AM52 °FSunny.9 mph62%30.48 "Hg10 mi
Weather by CustomWeather, © 2016

See weather overviewHow to use our weather pages